#timestamp,LO_Frequency,Hit,Temp,Hum 
1479700815.3,286046992.1,N,0.0,0.0
1479700835.1,286046992.2,N,0.0,0.0
1479700855.8,286046993.9,N,0.0,0.0
1479700875.7,286046994.6,N,0.0,0.0
1479700895.5,286046991.8,N,0.0,0.0
1479700915.4,286046991.8,N,0.0,0.0
1479700935.2,286046994.8,N,0.0,0.0
1479700955.0,286046991.8,N,0.0,0.0
1479700955.9,286046991.8,N,0.0,0.0
1479700975.8,286046992.8,N,0.0,0.0
1479700995.6,286046990.1,N,0.0,0.0
1479701015.5,286046992.7,N,0.0,0.0
1479701035.3,286046988.9,N,0.0,0.0
1479701055.1,286046988.8,N,0.0,0.0
1479701075.9,286046989.1,N,0.0,0.0
1479701095.7,286046989.3,N,0.0,0.0
1479701115.5,286046987.3,N,0.0,0.0
1479701135.4,286046987.4,N,0.0,0.0
1479701155.2,286046987.1,N,0.0,0.0
1479701175.1,286046987.3,N,0.0,0.0
1479701176.0,286046987.3,N,0.0,0.0
1479701195.8,286046987.5,N,0.0,0.0
1479701215.6,286046987.7,N,0.0,0.0
1479701235.5,286046988.2,N,0.0,0.0
1479701255.3,286046987.6,N,0.0,0.0
1479701275.1,286046985.5,N,0.0,0.0
1479701295.9,286046985.6,N,0.0,0.0
1479701315.7,286046986.1,N,0.0,0.0
1479701335.6,286046985.5,N,0.0,0.0
1479701355.4,286046986.7,N,0.0,0.0
1479701375.2,286046986.4,N,0.0,0.0
1479701395.1,286046986.8,N,0.0,0.0
1479701396.0,286046986.8,N,0.0,0.0
1479701415.8,286046986.7,N,0.0,0.0
1479701435.6,286046984.6,N,0.0,0.0
1479701455.5,286046984.9,N,0.0,0.0
1479701475.3,286046984.4,N,0.0,0.0
1479701495.2,286046984.6,N,0.0,0.0
1479701515.9,286046982.6,N,0.0,0.0
1479701535.7,286046983.0,N,0.0,0.0
1479701555.6,286046983.3,N,0.0,0.0
1479701575.4,286046983.1,N,0.0,0.0
1479701595.3,286046981.1,N,0.0,0.0
1479701615.1,286046982.0,N,0.0,0.0
1479701616.0,286046982.0,N,0.0,0.0
1479701635.8,286046978.9,N,0.0,0.0
1479701655.7,286046981.3,N,0.0,0.0
1479701675.5,286046981.5,N,0.0,0.0
1479701695.3,286046979.2,N,0.0,0.0
1479701715.2,286046979.0,N,0.0,0.0
1479701735.0,286046981.9,N,0.0,0.0
1479701735.9,286046981.9,N,0.0,0.0
1479701755.8,286046979.7,N,0.0,0.0
1479701775.6,286046980.4,N,0.0,0.0
1479701795.4,286046980.0,N,0.0,0.0
1479701815.3,286046980.0,N,0.0,0.0
1479701835.1,286046977.5,N,0.0,0.0
1479701855.8,286046978.1,N,0.0,0.0
1479701875.7,286046977.5,N,0.0,0.0
1479701895.5,286046977.6,N,0.0,0.0
1479701915.4,286046976.4,N,0.0,0.0
1479701935.2,286046976.9,N,0.0,0.0
1479701955.0,286046976.8,N,0.0,0.0
1479701955.9,286046976.8,N,0.0,0.0
1479701975.8,286046976.2,N,0.0,0.0
1479701995.6,286046977.2,N,0.0,0.0
1479702015.4,286046974.3,N,0.0,0.0
1479702035.3,286046974.8,N,0.0,0.0
1479702055.1,286046974.3,N,0.0,0.0
1479702075.9,286046975.2,N,0.0,0.0
1479702095.7,286046975.1,N,0.0,0.0
1479702115.5,286046972.6,N,0.0,0.0
1479702135.4,286046972.9,N,0.0,0.0
1479702155.2,286046973.7,N,0.0,0.0
1479702175.1,286046973.2,N,0.0,0.0
1479702176.0,286046973.2,N,0.0,0.0
1479702195.8,286046973.8,N,0.0,0.0
1479702215.6,286046973.3,N,0.0,0.0
1479702235.5,286046971.4,N,0.0,0.0
1479702255.3,286046971.6,N,0.0,0.0
1479702275.1,286046969.3,N,0.0,0.0
1479702295.9,286046971.7,N,0.0,0.0
1479702315.7,286046972.4,N,0.0,0.0
1479702335.6,286046970.0,N,0.0,0.0
1479702355.4,286046970.5,N,0.0,0.0
1479702375.2,286046970.3,N,0.0,0.0
1479702395.1,286046968.1,N,0.0,0.0
1479702396.0,286046968.1,N,0.0,0.0
1479702415.8,286046967.8,N,0.0,0.0
1479702435.6,286046968.1,N,0.0,0.0
1479702455.5,286046968.2,N,0.0,0.0
1479702475.3,286046969.0,N,0.0,0.0
1479702495.2,286046966.1,N,0.0,0.0
1479702515.9,286046966.6,N,0.0,0.0
1479702535.7,286046969.1,N,0.0,0.0
1479702555.6,286046966.9,N,0.0,0.0
1479702575.4,286046967.6,N,0.0,0.0
1479702595.3,286046965.2,N,0.0,0.0
1479702615.1,286046964.6,N,0.0,0.0
1479702616.0,286046964.6,N,0.0,0.0
1479702635.8,286046965.2,N,0.0,0.0
1479702655.7,286046965.3,N,0.0,0.0
1479702675.5,286046966.0,N,0.0,0.0
1479702695.3,286046967.6,N,0.0,0.0
1479702715.2,286046965.5,N,0.0,0.0
1479702735.0,286046965.5,N,0.0,0.0
1479702735.9,286046965.5,N,0.0,0.0
1479702755.8,286046965.8,N,0.0,0.0
1479702775.6,286046965.3,N,0.0,0.0
1479702795.4,286046964.2,N,0.0,0.0
1479702815.3,286046962.3,N,0.0,0.0
1479702835.1,286046959.7,N,0.0,0.0
1479702855.9,286046962.2,N,0.0,0.0
1479702875.7,286046962.4,N,0.0,0.0
1479702895.5,286046962.4,N,0.0,0.0
1479702915.4,286046960.0,N,0.0,0.0
1479702935.2,286046960.1,N,0.0,0.0
1479702955.0,286046960.5,N,0.0,0.0
1479702955.9,286046960.5,N,0.0,0.0
1479702975.8,286046960.5,N,0.0,0.0
1479702995.6,286046961.0,N,0.0,0.0
1479703015.5,286046960.8,N,0.0,0.0
1479703035.3,286046958.8,N,0.0,0.0
1479703055.1,286046959.5,N,0.0,0.0
1479703075.9,286046959.3,N,0.0,0.0
1479703095.7,286046958.7,N,0.0,0.0
1479703115.5,286046959.0,N,0.0,0.0
1479703135.4,286046959.6,N,0.0,0.0
1479703155.2,286046959.2,N,0.0,0.0
1479703175.1,286046958.3,N,0.0,0.0
1479703176.0,286046958.3,N,0.0,0.0
1479703195.8,286046958.7,N,0.0,0.0
1479703215.6,286046958.8,N,0.0,0.0
1479703235.5,286046959.0,N,0.0,0.0
1479703255.3,286046958.7,N,0.0,0.0
1479703275.2,286046959.3,N,0.0,0.0
1479703295.9,286046956.9,N,0.0,0.0
1479703315.7,286046957.2,N,0.0,0.0
1479703335.6,286046959.1,N,0.0,0.0
1479703355.4,286046956.6,N,0.0,0.0
1479703375.2,286046959.6,N,0.0,0.0
1479703395.1,286046956.9,N,0.0,0.0
1479703396.0,286046956.9,N,0.0,0.0
1479703415.8,286046959.0,N,0.0,0.0
1479703435.7,286046958.9,N,0.0,0.0
1479703455.5,286046960.9,N,0.0,0.0
1479703475.3,286046960.5,N,0.0,0.0
1479703495.2,286046959.7,N,0.0,0.0
1479703515.0,286046960.4,N,0.0,0.0
1479703515.9,286046960.4,N,0.0,0.0
1479703535.8,286046961.0,N,0.0,0.0
1479703555.6,286046960.0,N,0.0,0.0
1479703575.4,286046962.4,N,0.0,0.0
1479703595.3,286046959.7,N,0.0,0.0
1479703615.1,286046962.7,N,0.0,0.0
1479703635.9,286046962.1,N,0.0,0.0
1479703655.7,286046961.7,N,0.0,0.0
1479703675.5,286046962.3,N,0.0,0.0
1479703695.4,286046962.8,N,0.0,0.0
1479703715.2,286046962.8,N,0.0,0.0
1479703735.0,286046962.0,N,0.0,0.0
1479703735.9,286046962.0,N,0.0,0.0
1479703755.8,286046962.4,N,0.0,0.0
1479703775.6,286046959.7,N,0.0,0.0
1479703795.5,286046962.7,N,0.0,0.0
1479703815.3,286046962.0,N,0.0,0.0
1479703835.1,286046959.7,N,0.0,0.0
1479703855.9,286046961.6,N,0.0,0.0
1479703875.7,286046961.4,N,0.0,0.0
1479703895.5,286046963.2,N,0.0,0.0
1479703915.4,286046966.0,N,0.0,0.0
1479703935.2,286046963.4,N,0.0,0.0
1479703955.1,286046963.8,N,0.0,0.0
1479703956.0,286046963.8,N,0.0,0.0
1479703975.8,286046963.1,N,0.0,0.0
1479703995.6,286046963.0,N,0.0,0.0
1479704015.5,286046965.6,N,0.0,0.0
1479704035.3,286046965.5,N,0.0,0.0
1479704055.2,286046965.0,N,0.0,0.0
1479704075.9,286046965.4,N,0.0,0.0
1479704095.7,286046967.6,N,0.0,0.0
1479704115.6,286046964.6,N,0.0,0.0
1479704135.4,286046964.5,N,0.0,0.0
1479704155.2,286046965.2,N,0.0,0.0
1479704175.1,286046965.4,N,0.0,0.0
1479704176.0,286046965.4,N,0.0,0.0
1479704195.8,286046964.5,N,0.0,0.0
1479704215.7,286046967.1,N,0.0,0.0
1479704235.5,286046964.5,N,0.0,0.0
1479704255.3,286046967.5,N,0.0,0.0
1479704275.2,286046967.3,N,0.0,0.0
1479704295.0,286046966.5,N,0.0,0.0
1479704295.9,286046966.5,N,0.0,0.0
1479704315.7,286046966.5,N,0.0,0.0
1479704335.6,286046966.4,N,0.0,0.0
1479704355.4,286046966.7,N,0.0,0.0
1479704375.3,286046969.0,N,0.0,0.0
1479704395.1,286046966.6,N,0.0,0.0
